Regional Weather Roundup
Issued by NWS

Home | Current Version | Previous Version | Graphics & Text | Print | Product List | Glossary Off
Versions: 1 2 3 4 5 6 7 8 9 10 11 12 13 14 15 16 17 18 19 20 21 22 23 24 25 26 27 28 29 30 31 32 33 34 35 36 37 38 39 40 41 42 43 44 45 46 47 48 49 50

000
ASUS43 KMKX 280959
RWRWI

WISCONSIN REGIONAL WEATHER ROUNDUP
NATIONAL WEATHER SERVICE MILWAUKEE/SULLIVAN WI
400 AM CST WED JAN 28 2015

NOTE: "FAIR" INDICATES FEW OR NO CLOUDS BELOW 12,000 FEET WITH NO
SIGNIFICANT WEATHER AND/OR OBSTRUCTIONS TO VISIBILITY.

WIZ001-002-006>008-014>016-023>028-281100-
NORTHWEST WISCONSIN

CITY           SKY/WX    TMP DP  RH WIND       PRES   REMARKS
SUPERIOR ARPT  CLOUDY    26  21  82 S9        30.08F WCI  16
ASHLAND        CLOUDY    26  20  77 CALM      30.11S
HAYWARD        CLOUDY    24  20  84 S8        30.09F WCI  15
SIREN          CLOUDY    26  22  85 SE7       30.07F WCI  18
CUMBERLAND     CLOUDY    23  21  93 SE13      30.08F WCI  11
RICE LAKE      CLOUDY    25  22  86 SE10      30.11F WCI  15
CHETEK         CLOUDY    25  21  86 SE10      30.11F WCI  15
LADYSMITH      CLOUDY    25  22  88 S6        30.13F WCI  18
EAU CLAIRE     NOT AVBL
MENOMONIE      CLOUDY    27  23  84 SE8       30.12F WCI  19
NEW RICHMOND   CLOUDY    27  24  86 S8        30.09S WCI  19
OSCEOLA        CLOUDY    28  25  87 SE10      30.11S WCI  19
$$

WIZ003>005-009-010-017-018-281100-
NORTH CENTRAL WISCONSIN

CITY           SKY/WX    TMP DP  RH WIND       PRES   REMARKS
MANITOWISH WTR CLOUDY    22  21  96 S6        30.09F WCI  14
ARBOR VITAE    CLOUDY    23  21  93 S6        30.10F FOG     WCI  16
WOODRUFF       CLOUDY    23  21  93 S6        30.10F FOG     WCI  16
RHINELANDER    CLOUDY    22  20  92 S8        30.12S FOG     WCI  12
EAGLE RIVER    CLOUDY    22  19  88 S3        30.11S FOG
LAND O LAKES   CLOUDY    23  21  93 S3        30.11F
PHILLIPS       CLOUDY    23  21  92 S8        30.10F WCI  14
TOMAHAWK       CLOUDY    22  21  95 CALM      30.14S FOG
MEDFORD        CLOUDY    23  21  93 S10       30.12F FOG     WCI  12
MERRILL        CLOUDY    23  21  91 S3        30.15S
$$

WIZ029-030-035-036-043>047-281100-
CENTRAL WISCONSIN

CITY           SKY/WX    TMP DP  RH WIND       PRES   REMARKS
WAUSAU         CLOUDY    23  19  85 SE8       30.14F WCI  14
MOSINEE        CLOUDY    23  21  93 S6        30.16F WCI  16
MARSHFIELD     CLOUDY    25  22  88 S12       30.14F FOG     WCI  14
STEVENS POINT  CLOUDY    23  18  81 S6        30.18S WCI  16
WAUPACA        CLOUDY    26  19  77 E5        30.21F WCI  20
WAUTOMA        NOT AVBL
WISC RAPIDS    CLOUDY    24  20  84 SE6       30.18F WCI  17
CAMP DOUGLAS   CLOUDY    27  27 100 SE5       30.17S WCI  21
$$

WIZ011>013-019>022-031-037>040-048>050-281100-
NORTHEAST WISCONSIN

CITY           SKY/WX    TMP DP  RH WIND       PRES   REMARKS
ANTIGO         CLOUDY    21  18  90 S6        30.15S WCI  13
SHAWANO        CLOUDY    25  18  76 S3        30.21F
OCONTO         CLOUDY    15  14  95 CALM      30.24F
STURGEON BAY   MOCLDY    18  14  86 S5        30.25F WCI  11
GREEN BAY      MOCLDY    17  15  92 SE3       30.23F
MANITOWOC      NOT AVBL
APPLETON       CLOUDY    23  18  80 S7        30.22F WCI  15
CLINTONVILLE   CLOUDY    23  18  80 S6        30.20F WCI  16
OSHKOSH        MOCLDY    22  16  78 S6        30.22F WCI  14
$$

WIZ032>034-041-042-053>061-281100-
SOUTHWEST WISCONSIN

CITY           SKY/WX    TMP DP  RH WIND       PRES   REMARKS
LA CROSSE      CLOUDY    28  22  78 S10       30.16F WCI  19
SPARTA         CLOUDY    26  22  85 S8        30.18F WCI  18
VIROQUA        CLOUDY    24  24 100 S7        30.13F WCI  16
BOSCOBEL       CLOUDY    28  22  78 VRB5      30.19F WCI  23
PRAIRIE DU CHI CLOUDY    27  22  82 SE6       30.19S FOG     WCI  20
PLATTEVILLE    CLOUDY    27  24  88 SE10      30.17F WCI  17
$$

WIZ056-057-062-063-064-067-068-281100-
SOUTH CENTRAL WISCONSIN

CITY           SKY/WX    TMP DP  RH WIND       PRES   REMARKS
REEDSBURG      CLOUDY    26  23  87 S7        30.19S WCI  19
BARABOO/DELLS  CLOUDY    26  23  87 S6        30.19S FOG     WCI  20
LONE ROCK      NOT AVBL
MINERAL POINT  CLOUDY    27  25  93 SE7       30.17F FOG     WCI  19
MADISON        MOCLDY    23  18  81 S7        30.21F WCI  15
MIDDLETON      MOCLDY    25  19  80 S7        30.21S WCI  17
WATERTOWN      CLOUDY    23  19  85 SE3       30.22F
MONROE         PTCLDY    21  19  93 S7        30.19F WCI  13
JANESVILLE     PTCLDY    23  19  86 SE5       30.23S WCI  17
$$

WIZ051-052-058>065-066-070>072-281100-
SOUTHEAST WISCONSIN

CITY           SKY/WX    TMP DP  RH WIND       PRES   REMARKS
MILWAUKEE      MOCLDY    23  16  74 CALM      30.26F
WAUKESHA       PTCLDY    21  18  86 SE3       30.25S
MILWAUKEE/TIMM PTCLDY    23  18  80 CALM      30.26S
RACINE         MOCLDY    21  16  81 CALM      30.27F
BURLINGTON     PTCLDY    19  17  90 CALM      30.24F
KENOSHA        PTCLDY    19  16  88 CALM      30.25F
FOND DU LAC    CLOUDY    22  16  78 S5        30.22F WCI  16
SHEBOYGAN      MOCLDY    19  15  84 SE3       30.24F
WEST BEND      PTCLDY    19  16  86 CALM      30.24S
JUNEAU         CLOUDY    22  18  83 SE7       30.23F WCI  14
$$

LSZ147-162-281100-
LAKE SUPERIOR

STATION/POSITION TIME  TEMP    WIND        PRES    WAVE
                       AIR SEA DIR/SP/G            HT/PER
                 (UTC) (F)     (DEG/KT/KT) (MB)    (FT/S)
DEVILS ISLAND    0900   29     170/  6/  8 1021.0F
PORT WING        0900   28     180/  4/  6 1019.6F
SAXON HARBOR     0900   28     190/  2/  5 1020.0F
$$

LMZ867-665-643>646-281100-
LAKE MICHIGAN

STATION/POSITION TIME  TEMP    WIND        PRES    WAVE
                       AIR SEA DIR/SP/G            HT/PER
                 (UTC) (F)     (DEG/KT/KT) (MB)    (FT/S)
NORTHPORT PIER   0904   17     200/  1/  5 1024.0F
SISTER BAY       0913   19        CALM       N/A
KEWAUNEE LAKESHO 0900   22     280/  1/  3 1023.6F
SHEBOYGAN LAKESH 0900   26     230/  1/  1 1026.2R
PORT WASHINGTON  0940   24        CALM     1025.4F
MILWAUKEE LAKESH 0900   27     230/  4/  5   N/A
KENOSHA   LAKESH 0900   24     270/  3/  4 1025.1S
$$

TC  - TEMPERATURE IN CELSIUS
VSB - VISIBILITY IN STATUTE MILES
WCI - WIND CHILL INDEX
HX  - HEAT INDEX




USA.gov is the U.S. government's official web portal to all federal, state and local government web resources and services.